This is the latest recevied weather packets stored in our database for station/object AI5YA-13. If no packets are shown the sender has not sent any weather packets the latest 10 day(s).
| Time | Temp. | Humidity | Pressure | Rain* | Wind** | Luminosity | Snow |
|---|---|---|---|---|---|---|---|
| 1777857733 | 21.67° C | 43% | 1014.7 hPa | 0 mm | - | 6 W/m² | - |
| 1777857429 | 22.22° C | 43% | 1015 hPa | 0 mm | - | 10 W/m² | - |
| 1777857126 | 22.22° C | 42% | 1015 hPa | 0 mm | - | 13 W/m² | - |
| 1777856822 | 22.22° C | 41% | 1014.6 hPa | 0 mm | - | 18 W/m² | - |
| 1777856518 | 22.22° C | 42% | 1014.7 hPa | 0 mm | - | 21 W/m² | - |
| 1777856214 | 22.78° C | 41% | 1014.8 hPa | 0 mm | - | 28 W/m² | - |
| 1777855911 | 22.78° C | 41% | 1015 hPa | 0 mm | - | 32 W/m² | - |
| 1777855609 | 22.78° C | 40% | 1014.8 hPa | 0 mm | - | 38 W/m² | - |
| 1777855306 | 23.33° C | 39% | 1015 hPa | 0 mm | - | 56 W/m² | - |
| 1777855002 | 23.33° C | 39% | 1015 hPa | 0 mm | - | 70 W/m² | - |
| 1777854699 | 23.33° C | 39% | 1015 hPa | 0 mm | - | 79 W/m² | - |
| 1777854396 | 23.33° C | 39% | 1015.1 hPa | 0 mm | - | 84 W/m² | - |
| 1777854094 | 23.89° C | 37% | 1015.1 hPa | 0 mm | - | 93 W/m² | - |
| 1777853791 | 23.89° C | 37% | 1015.4 hPa | 0 mm | - | 107 W/m² | - |
| 1777853487 | 23.89° C | 38% | 1015.3 hPa | 0 mm | - | 111 W/m² | - |
| 1777853185 | 23.89° C | 37% | 1015.2 hPa | 0 mm | - | 134 W/m² | - |
| 1777852882 | 23.33° C | 37% | 1015.4 hPa | 0 mm | - | 124 W/m² | - |
| 1777852580 | 23.33° C | 38% | 1015.5 hPa | 0 mm | - | 117 W/m² | - |
| 1777852276 | 23.33° C | 39% | 1015.3 hPa | 0 mm | - | 105 W/m² | - |
| 1777851975 | 23.33° C | 39% | 1015.5 hPa | 0 mm | - | 120 W/m² | - |
| 1777851672 | 23.89° C | 38% | 1015.5 hPa | 0 mm | - | 145 W/m² | - |
| 1777851369 | 23.89° C | 38% | 1015.5 hPa | 0 mm | - | 140 W/m² | - |
| 1777851065 | 23.89° C | 39% | 1015.6 hPa | 0 mm | - | 194 W/m² | - |
| 1777850762 | 23.89° C | 38% | 1015.3 hPa | 0 mm | - | 191 W/m² | - |
| 1777850459 | 23.33° C | 38% | 1015.8 hPa | 0 mm | - | 122 W/m² | - |
* Rain latest hour (hover to see other rain measurements)
** Current wind speed in m/s (hover to see current wind gust speed)